Other Public Products
Issued by NWS Grand Forks, ND

Home | Current Version | Previous Version | Graphics & Text | Print | Product List | Glossary On
Versions: 1 2 3 4 5 6 7 8 9 10 11 12 13 14 15 16 17 18 19 20 21 22 23 24 25 26 27 28 29 30 31 32 33 34 35 36 37 38 39 40 41 42 43 44 45 46 47 48 49 50
000
FPUS83 KFGF 261410
OPUFGF
PRAIRIE TO PINES WEATHER ROUNDUP
NATIONAL WEATHER SERVICE EASTERN NORTH DAKOTA/GRAND FORKS ND
900 AM CDT TUE MAY 26 2015

 **SATELLITE DATA USED TO AUGMENT SKY COVER AT AUTOMATED STATIONS**
 *****  WEATHER ACROSS EASTERN NORTH DAKOTA  *****

CITY           SKY/WX    TMP DP  RH WIND       PRES   REMARKS
GRAND FORKS    MOSUNNY   64  55  72 SW7       29.80F
GRAND FORKS AF SUNNY     66  54  65 SW7       29.81S
GRAND CITY NWS   N/A     61 N/A N/A SW10        N/A
BUXTON         NOT AVBL
DEVILS LAKE    MOSUNNY   64  50  59 NW14      29.83F
FARGO          MOSUNNY   61  53  75 S6        29.85S
WAHPETON ARPT  PTSUNNY   55  52  88 CALM      29.87S
$$

 *****  WEATHER ACROSS CENTRAL AND WESTERN NORTH DAKOTA  *****

CITY           SKY/WX    TMP DP  RH WIND       PRES   REMARKS
JAMESTOWN      SUNNY     63  53  70 W9        29.85F
BISMARCK       SUNNY     61  50  67 W10       29.94S
MINOT          SUNNY     67  49  52 W12       29.89R
MINOT AFB      MOSUNNY   65  53  65 W14       29.87S
GARRISON         N/A     64  50  60 W9        29.92S
WILLISTON      SUNNY     58  49  72 S3        29.94S
DICKINSON      SUNNY     56  52  86 W7        29.95S
HETTINGER      MOSUNNY   55  52  89 CALM      29.98R
$$

 *****  OTHER OBSERVATIONS NORTHEAST NORTH DAKOTA  *****

CITY           SKY/WX    TMP DP  RH WIND       PRES   REMARKS
WALHALLA         N/A     68  48  49 NW6       29.80S
LANGDON        FAIR      70  48  46 NW12      29.83S
CAVALIER       FAIR      64  54  68 CALM      29.80R
GRAFTON        FAIR      63  57  82 S7        29.81S
CANDO          FAIR      66  50  55 NW10      29.85R
FORT TOTTEN    NOT AVBL
ROLLA          FAIR      72  43  35 NW10      29.86R
RUGBY          NOT AVBL
 ***** THE ABOVE OBSERVATIONS ARE NON NWS ARE NOT QUALITY
        CONTROLLED AND MAY MIS-REPORT RAIN FOR SNOW...
$$

 *****  OTHER OBSERVATIONS SOUTHEAST NORTH DAKOTA *****

CITY           SKY/WX    TMP DP  RH WIND       PRES   REMARKS
COOPERSTOWN    NOT AVBL
VALLEY CITY    FAIR      63  57  82 NW13      29.85S
OAKES            N/A     59  57  94 NW6       29.86F
GWINNER        NOT AVBL
SHEYENNE NWR     N/A     60  54  80 SW5       29.95
BUFFALO        NOT AVBL
WYNDMERE         N/A     61  57  88 SW3         N/A
 ***** THE ABOVE OBSERVATIONS ARE NON NWS ARE NOT QUALITY
       CONTROLLED AND MAY MIS-REPORT RAIN FOR SNOW...
$$

  *****  WEATHER ACROSS NORTHERN MINNESOTA  *****

CITY           SKY/WX    TMP DP  RH WIND       PRES   REMARKS
FLAG ISLAND    SUNNY     55  52  88 S15       29.81S
WARROAD        SUNNY     63  52  67 SW15      29.83R
ROSEAU         SUNNY     64  52  63 SW15      29.82S
HALLOCK        SUNNY     64  55  72 S10       29.79F
THF RVR FALLS  SUNNY     63  48  59 S13       29.83F
HALSTAD        NOT AVBL
FOSSTON        PTSUNNY   57  52  82 S5        29.87S
BAUDETTE       SUNNY     62  51  67 S12       29.84F
WASKISH        MOSUNNY   59  54  82 CALM      29.86
CROOKSTON      SUNNY     63  50  63 SW14      29.84S
$$
  *****  WEATHER ACROSS CENTRAL AND WEST MINNESOTA  *****

CITY           SKY/WX    TMP DP  RH WIND       PRES   REMARKS
BEMIDJI        PTSUNNY   55  53  90 CALM      29.87F
PARK RAPIDS    PTSUNNY   59  51  75 NE5       29.87S
WADENA         PTSUNNY   55  54  94 NE5       29.87S
DETROIT LAKES  PTSUNNY   57  52  82 CALM      29.88S
MOORHEAD       PTSUNNY   57  54  88 SE6       29.86F
FERGUS FALLS   CLOUDY    61  52  72 NE5       29.87F
ELBOW LAKE     FAIR      57  52  81 NE8       29.86S
MORRIS MN      CLOUDY    59  55  88 NE14      29.84R
STAPLES        PTSUNNY   55  52  88 N7        29.86S
WHEATON        CLOUDY    55  52  88 NW3       29.88S
$$
  *****  WEATHER ELSEWHERE ACROSS MINNESOTA  *****

CITY           SKY/WX    TMP DP  RH WIND       PRES   REMARKS
DULUTH         CLOUDY    56  52  86 NE6       29.85S
INTRNTL FALLS  MOSUNNY   61  51  70 S6        29.86F
ELY            PTSUNNY   57  52  82 E6        29.87S
CLOQUET        CLOUDY    55  52  88 NE3       29.86S
BRAINERD       CLOUDY    56  53  90 NE8       29.86S
HIBBING        PTSUNNY   59  51  75 NE6       29.86F
ALEXANDRIA     CLOUDY    58  52  80 NE8       29.86S
SAINT CLOUD    CLOUDY    57  52  83 NE6       29.84R
MINNEAPOLIS    CLOUDY    58  56  93 VRB7      29.82S FOG
$$

  *****  WEATHER ACROSS SOUTH DAKOTA  *****

CITY           SKY/WX    TMP DP  RH WIND       PRES   REMARKS
SIOUX FALLS    LGT RAIN  55  52  89 NE10      29.84R
BROOKINGS      CLOUDY    55  50  82 N9G16     29.87R
WATERTOWN      CLOUDY    56  50  80 N10       29.86R
HURON          MOSUNNY   57  50  77 N12G18    29.88R
SISSETON         N/A     61  53  75 N6        29.86S
ABERDEEN       MOSUNNY   62  54  74 NW5       29.88S
MITCHELL       CLOUDY    57  51  80 N9        29.88R
PIERRE         SUNNY     59  53  80 NW12      29.93R
MOBRIDGE       SUNNY     59  55  87 NW10      29.91S
RAPID CITY     CLOUDY    53  52  96 SE3       30.00R
$$

  *****  SOME WEATHER IN NEARBY STATES *****

CITY           SKY/WX    TMP DP  RH WIND       PRES   REMARKS
GLASGOW MT     SUNNY     59  49  69 SE7       29.92R
GREAT FALLS MT LGT RAIN  52  50  93 S6        29.95R
CHEYENNE WY    CLOUDY    50  40  68 N3        30.06R
SCOTTSBLUFF NE MOSUNNY   54  51  90 W6        30.01S
OMAHA NE       CLOUDY    63  60  90 S5        29.78S
DES MOINES IA  LGT RAIN  63  60  90 N9        29.75F FOG
DAVENPORT IA   CLOUDY    70  66  87 SE18      29.78F
CHICAGO IL     CLOUDY    69  64  84 S9        29.91F
EAU CLAIRE WI  CLOUDY    64  61  90 CALM      29.82S
LA CROSSE WI   LGT RAIN  64  61  90 S3        29.82R
$$

  *****  SOME NATIONAL WEATHER *****

CITY           SKY/WX    TMP DP  RH WIND       PRES   REMARKS
LA GUARDIA NY  MOSUNNY   76  58  53 SW13      30.20F
RALEIGH NC     MOSUNNY   77  66  68 SW9       30.31F
ATLANTA GA     DRIZZLE   73  68  84 S9        30.24S
NEW ORLEANS LA LGT RAIN  70  64  81 NE7       30.10F
OKLAHOMA CITY  CLOUDY    59  58  96 S12       29.99R
ALBUQUERQUE NM MOSUNNY   54  45  71 E5        30.15S
SALT LAKE CITY PTSUNNY   59  48  67 S8        30.02R
LOS ANGELES CA CLOUDY    59  55  87 N5        30.00S
BOISE ID       SUNNY     56  48  74 CALM      29.96R
SEATTLE WA     CLOUDY    53  49  86 SW6       30.06R
$$

*** WEATHER ACROSS MANITOBA...SASKATCHEWAN AND ONTARIO ***
                ***ONTARIO***

CITY           SKY/WX    TMP DP  RH WIND       PRES   REMARKS
GERALDTON      PTSUNNY   59  54  82 VRB2      29.87R
THUNDER BAY    PTSUNNY   63  55  77 N5        29.85S
SIOUX LOOKOUT  SUNNY     63  52  67 SW8       29.84S
TORONTO        PTSUNNY   79  66  65 W7        30.07F
BIG TROUT LK   SUNNY     43  28  56 NE7       29.78R
PICKLE LAKE    MOSUNNY   64  52  63 SW8       29.78S
DRYDEN         SUNNY     63  50  63 SW15      29.84S
KENORA         MOSUNNY   61  48  63 SW18G24   29.82F
$$
                *** MANITOBA***

CITY           SKY/WX    TMP DP  RH WIND       PRES   REMARKS
BRANDON        MOSUNNY   70  46  43 NW9       29.82S
DAUPHIN        SUNNY     72  45  37 W14G20    29.77F
ISLAND LAKE    MOSUNNY   48  34  57 N12       29.79R
PILOT MOUND      N/A     68  46  45 NW9         N/A
THE PAS        CLOUDY    46  36  66 NE9       29.85R
THOMPSON       CLOUDY    32  27  80 NE13      29.94R WCI  22
WINNIPEG       NOT AVBL
LYNN LAKE      MOSUNNY   34  21  60 NE12      29.98R
CHURCHILL      CLOUDY    27  21  80 NW7       30.08R WCI  19
GILLAM         LGT SNOW  25  23  93 NE14G21   30.00S WCI  13
$$
                ***SASKATCHEWAN***

CITY           SKY/WX    TMP DP  RH WIND       PRES   REMARKS
ESTEVAN        MOSUNNY   64  50  59 W12       29.91S
KINDERSLEY     MOSUNNY   61  39  44 CALM      29.89S
LLOYDMINSTER   MOSUNNY   63  41  45 N12       29.89R
PRINCE ALBERT  NOT AVBL
REGINA         MOSUNNY   64  50  59 W8        29.89S



USA.gov is the U.S. government's official web portal to all federal, state and local government web resources and services.